Lapse_Rate
4.0 3.3 2.5 2.6 2.7 2.3 1.8 1.3 1.2 1.1 0.8 0.1 -0.5 -1.4 -1.6 -1.2 0.3 0.5 -0.3 -0.8 1.3 1.1 3.3 3.7 3.5 1.6 2.9 2.5 6.5 4.1 5.2 2.7 4.6 6.5 6.5 6.5 6.5 6.5 6.5 6.5 6.5 6.5 6.5 6.5 6.5 6.5 6.5 5.0 6.4 6.5 5.4 2.8 1.4 1.4
3.5 2.9 2.8 2.8 2.4 2.0 1.6 1.2 1.1 1.0 -0.2 -1.2 -2.1 -2.2 -2.5 -1.4 -0.1 1.1 2.7 -0.2 -1.2 0.0 2.9 2.1 2.4 2.0 2.9 2.0 0.5 2.1 3.8 3.9 2.2 6.5 6.5 6.5 6.5 6.5 6.5 6.5 6.5 6.5 6.5 6.5 6.5 6.5 5.2 4.3 5.0 2.9 2.5 2.6 1.1 0.8
3.2 3.1 3.1 2.7 2.2 1.9 1.5 1.2 0.3 -0.7 -1.6 -1.6 -1.4 -1.0 -2.4 -2.0 -0.0 1.4 -0.3 -1.8 -1.5 -0.3 2.5 2.6 4.1 2.8 1.2 0.6 0.5 2.1 0.9 2.1 1.4 -0.2 3.7 6.3 6.5 6.5 6.5 6.5 6.5 6.5 5.6 6.5 6.5 6.4 5.5 2.9 2.4 2.2 2.3 1.8 2.0 0.7
3.0 2.9 2.7 2.3 1.9 1.6 1.3 0.3 -1.1 -1.4 -1.0 -1.2 -0.5 0.0 -0.6 -0.7 -0.6 -0.9 -1.6 -3.0 -2.3 -3.1 0.5 2.7 2.0 2.9 1.4 1.2 1.5 0.2 -1.6 -1.8 -2.1 -1.1 1.9 6.5 6.5 5.0 6.5 6.5 6.5 5.8 6.1 6.5 6.5 5.8 3.8 2.6 1.7 1.5 1.7 1.4 1.5 1.0
2.8 2.3 2.3 2.1 1.4 1.5 0.2 -0.7 -0.8 -0.8 -0.7 -0.8 -0.6 -0.3 -0.2 -0.2 -0.5 -1.4 -3.0 -3.6 -3.1 0.0 2.5 -0.0 2.3 2.1 0.7 0.9 -0.3 -0.5 -0.3 -0.8 -0.5 -0.0 5.4 6.5 2.1 5.9 6.2 6.4 6.5 4.7 6.5 6.5 6.5 3.1 4.8 3.6 3.7 2.7 1.7 1.2 0.6 1.9
2.7 2.6 1.9 2.2 1.5 -0.3 -0.3 -0.2 -0.4 -0.6 -0.9 -0.7 -0.8 -0.1 0.5 0.5 0.5 -0.3 0.6 -1.3 -3.5 -3.2 -1.1 6.3 0.9 1.9 0.6 0.7 0.3 0.3 0.1 -0.9 -0.5 -0.1 -0.1 0.4 2.9 3.1 6.5 6.5 4.2 2.7 2.2 2.1 3.7 3.5 2.4 3.1 2.6 2.7 2.4 1.3 1.6 2.3
2.4 1.9 2.2 1.8 1.4 0.5 0.0 -0.0 -0.3 -0.4 -0.0 -0.2 -0.7 -0.3 0.4 0.1 -1.3 -0.9 0.7 -0.7 -3.4 -3.5 -2.3 4.5 3.6 1.0 0.4 0.5 -0.9 0.2 -0.2 -0.2 1.1 -0.1 0.9 0.3 2.9 3.3 6.5 6.5 3.6 2.6 2.2 2.3 2.2 3.8 4.4 2.6 3.4 2.5 2.4 1.6 2.3 2.8
2.7 2.7 2.4 2.1 1.7 1.7 0.6 -0.1 -0.2 -0.1 0.4 0.5 -0.1 -0.3 -0.6 -1.0 -1.4 -0.0 -1.5 -2.2 -2.6 -2.0 -2.7 6.5 6.8 1.6 1.3 0.1 0.4 0.1 -0.3 1.4 2.3 3.2 3.9 5.1 4.9 5.1 6.5 5.5 3.2 3.4 3.4 3.3 3.4 2.7 4.3 3.6 1.8 1.1 2.1 2.7 3.4 4.7
2.0 1.9 1.9 1.3 1.4 2.1 2.0 0.6 0.3 0.4 0.7 1.1 1.2 1.3 0.4 -0.5 0.5 1.4 -0.6 -0.7 -1.2 -0.1 1.5 5.5 6.5 6.5 1.9 2.9 1.5 2.1 3.0 6.3 4.7 5.3 5.5 5.7 6.5 6.5 6.5 5.6 4.5 4.2 4.5 4.1 2.4 2.5 3.0 2.7 3.4 4.1 4.1 4.7 3.2 3.9
2.5 2.2 2.1 2.1 1.8 1.8 1.6 0.9 1.0 1.5 1.8 1.4 0.5 0.4 1.1 0.9 0.5 0.4 1.0 0.3 -0.3 0.1 1.2 5.9 4.7 6.5 5.5 2.9 4.3 3.8 3.4 6.5 6.5 6.2 5.0 6.5 6.5 5.8 5.0 4.3 3.4 2.3 2.6 3.9 4.4 3.9 3.2 3.1 3.5 4.8 4.4 4.8 4.5 4.8
4.0 3.5 2.7 2.4 2.2 2.0 1.9 2.3 2.7 3.2 2.8 0.6 0.6 2.0 1.9 1.4 1.2 -0.3 2.7 4.4 5.8 5.9 4.6 4.9 4.4 6.1 4.7 6.4 6.5 4.2 6.4 6.4 6.5 6.4 6.5 6.5 6.5 6.2 5.0 4.0 3.8 3.4 3.1 3.0 3.1 3.6 5.2 5.4 5.5 4.8 4.8 5.5 5.3 4.3
4.9 4.5 3.7 3.4 3.3 2.6 2.9 3.3 3.2 1.6 0.9 1.6 1.6 1.4 0.6 1.5 1.9 6.0 6.5 5.7 6.5 6.5 4.6 5.3 4.7 4.7 3.8 3.6 5.9 5.2 6.5 6.5 6.5 5.7 6.5 6.5 6.5 6.0 5.3 4.8 5.1 4.9 4.5 4.6 4.5 4.6 5.0 5.3 5.6 5.4 4.7 3.5 2.2 2.0
4.7 4.6 4.2 3.9 3.5 3.5 3.3 3.2 3.0 2.1 1.7 1.0 1.5 1.8 4.4 4.2 6.5 6.5 6.5 6.5 6.5 5.5 4.6 4.0 5.9 3.3 3.9 3.9 5.2 6.4 6.5 6.5 5.3 6.5 6.5 6.5 6.9 6.9 6.7 6.1 5.7 5.6 5.4 5.4 5.5 5.3 5.0 4.2 3.0 2.0 2.5 0.9 0.0 1.3
5.1 4.7 4.4 3.8 4.0 3.7 3.6 3.9 3.6 2.4 1.9 2.9 4.3 6.5 6.5 6.5 6.5 6.5 6.5 6.5 5.5 4.9 4.5 4.1 5.1 4.8 4.1 6.0 6.3 6.5 6.5 6.4 6.5 6.5 6.5 6.5 6.6 6.3 6.8 5.7 4.8 4.5 3.8 4.5 4.7 3.4 2.4 2.1 1.8 0.6 0.2 0.1 -0.3 1.1
4.9 4.5 4.1 3.4 3.8 3.9 3.5 3.1 3.5 1.0 1.5 4.0 4.7 6.5 6.5 6.1 6.0 5.6 5.1 5.1 4.5 4.4 4.4 4.9 5.3 5.4 6.4 6.5 6.5 6.5 6.5 6.5 6.5 6.5 6.5 5.9 6.0 6.4 5.7 4.5 3.7 3.2 1.5 3.1 4.4 2.7 2.3 1.4 0.8 1.5 0.9 0.1 0.7 0.9
4.6 3.7 2.9 3.2 3.6 4.0 3.6 2.5 0.1 -0.5 1.4 5.2 5.2 6.4 6.1 6.3 6.4 6.0 5.5 5.6 4.9 4.3 4.0 4.6 6.4 6.5 6.5 6.5 6.5 6.5 6.5 6.5 6.5 6.4 5.5 5.2 5.8 5.2 4.9 4.9 4.7 4.3 4.0 4.4 3.9 3.0 2.5 1.3 1.4 2.3 1.4 0.8 0.1 -0.2
3.9 3.0 3.0 3.1 3.2 4.2 2.8 1.0 -0.4 2.3 5.6 6.9 6.2 5.1 5.3 5.6 6.1 5.5 4.8 5.6 4.6 5.0 6.5 5.9 6.5 6.5 6.4 6.5 6.5 6.5 6.5 6.5 6.0 5.5 5.0 5.6 5.4 4.9 4.3 3.9 3.1 3.5 4.5 3.9 2.8 4.3 2.4 0.9 0.1 1.6 3.1 3.5 2.0 1.2
1.5 2.3 3.2 2.5 2.2 1.5 0.4 0.0 1.4 5.2 6.2 5.4 6.1 5.4 5.1 4.6 5.1 4.8 3.9 3.0 3.3 6.1 4.5 6.1 6.4 6.5 6.5 6.5 6.5 6.3 4.8 2.3 2.4 3.0 2.7 3.5 4.6 4.2 4.4 4.4 4.4 4.4 4.3 2.1 1.7 2.6 1.6 2.1 2.6 2.7 2.7 2.5 1.8 1.8
3.0 2.8 2.4 2.0 1.1 -0.3 1.3 3.0 3.0 5.3 5.4 4.7 4.8 3.9 4.3 4.2 3.6 3.1 3.3 3.1 1.4 0.0 1.6 1.2 6.5 6.5 6.5 2.8 2.6 6.2 4.4 4.0 2.1 1.6 1.3 3.3 3.4 3.3 3.8 4.1 3.8 3.6 3.1 3.0 2.7 2.4 2.3 2.8 2.7 2.6 2.2 2.7 3.3 4.4
4.5 3.2 2.2 1.7 1.7 0.6 3.1 3.0 3.2 4.2 6.4 5.5 4.4 4.6 4.5 4.4 3.9 4.1 4.3 4.0 2.4 1.5 2.5 6.0 5.9 1.8 1.3 -0.0 -0.5 -0.1 2.8 2.9 0.5 0.3 1.4 1.7 2.4 2.7 2.3 2.4 2.2 2.4 2.3 2.9 3.1 2.8 2.3 1.9 1.6 2.3 2.5 3.2 3.7 4.1
2.4 2.2 1.7 1.0 0.2 2.0 2.4 3.0 3.5 4.5 4.5 4.6 3.7 4.3 4.4 4.2 5.1 5.4 5.2 3.8 5.1 4.0 2.8 1.5 -1.8 -1.1 1.3 0.8 -0.7 -0.4 1.5 1.2 1.4 0.9 1.3 2.8 2.3 2.1 2.0 1.7 1.7 1.9 1.9 1.5 1.6 1.6 1.3 2.0 1.9 1.2 0.4 0.8 1.9 3.1
2.3 2.8 -0.4 0.9 1.9 4.0 4.0 3.3 4.5 3.2 5.1 5.0 5.1 5.1 5.3 5.4 5.1 5.2 4.3 5.2 4.8 4.0 3.0 2.0 1.7 2.9 3.2 2.1 1.7 2.0 1.8 1.7 1.6 1.9 1.8 1.8 2.6 2.4 1.2 0.6 0.8 0.6 1.2 0.8 0.9 -0.6 -0.7 1.0 0.7 0.2 -0.1 0.2 2.0 2.7
3.6 1.7 2.2 4.1 3.0 2.1 5.3 4.4 5.8 3.6 6.4 5.0 5.2 6.0 5.7 5.3 4.5 4.0 5.1 5.5 4.8 4.1 3.9 4.2 3.1 2.7 2.2 1.8 1.6 2.2 2.1 2.1 0.9 0.9 1.3 2.0 1.9 1.4 0.4 -0.6 -1.3 -1.6 -0.9 0.2 0.6 -0.3 -0.7 -1.3 -0.6 -1.0 -0.2 0.4 0.8 1.0
4.5 3.5 4.9 4.5 4.2 4.2 5.8 6.7 6.3 6.2 5.5 4.3 6.6 6.5 6.1 5.1 4.5 5.3 6.5 5.9 5.7 4.1 4.4 4.3 3.6 2.9 3.2 2.5 2.0 2.1 2.8 3.3 2.3 1.2 1.5 2.7 2.0 1.5 0.7 0.0 -0.7 -1.0 -1.2 -0.8 -1.1 -2.4 -2.0 -3.4 -2.1 -0.5 -0.3 0.3 0.9 1.5
2.7 6.0 5.3 6.6 5.9 2.1 6.5 6.5 6.6 6.6 6.5 6.3 6.5 6.5 5.3 2.9 6.5 6.5 6.5 5.1 5.3 4.6 4.0 4.6 4.2 3.8 2.9 3.0 3.0 2.2 1.5 2.7 2.2 1.1 0.5 1.1 -0.1 0.4 0.8 0.8 -0.6 -0.5 -1.6 -3.4 -3.6 -3.2 -2.6 -2.2 -1.2 -0.8 0.4 0.9 1.9 3.2
6.5 4.9 6.5 6.7 6.4 6.5 5.9 6.5 6.5 6.5 6.5 6.5 6.0 3.6 1.7 4.9 6.5 6.5 6.5 5.2 6.0 5.1 4.5 4.0 3.8 3.2 3.2 3.6 3.1 2.3 1.6 1.2 2.2 1.0 0.4 0.7 -0.3 -3.1 -3.5 -3.5 -3.2 -2.8 -2.1 -5.6 -4.7 -4.0 -2.3 -1.3 -1.3 -1.3 0.4 1.5 2.6 1.9
6.5 6.1 4.4 5.5 5.7 4.8 3.9 2.6 3.4 6.0 6.5 6.5 6.4 6.3 6.5 6.5 6.5 6.5 6.1 4.7 5.0 3.7 3.8 3.7 4.2 3.2 2.2 1.5 0.6 -0.4 -0.9 -0.4 0.5 0.7 0.5 0.5 0.2 -0.5 -3.6 -4.5 -3.6 -1.9 -2.4 -3.3 -5.3 -5.0 -2.7 -1.0 -0.2 0.7 2.1 2.6 0.2 1.4
3.6 5.5 6.4 2.8 5.1 4.4 5.9 4.6 6.7 6.5 6.5 5.9 5.3 6.5 6.5 6.5 6.5 6.3 5.8 4.9 3.4 2.4 1.4 0.6 0.8 1.0 0.0 -0.6 -1.1 -1.0 -0.0 -0.2 0.0 -0.2 -0.6 -1.4 -2.2 -4.9 -4.9 -5.9 -4.9 -1.5 -3.8 -5.3 -6.5 -3.9 -3.0 -0.2 1.3 2.6 2.8 1.9 -1.3 -3.5
4.7 4.4 4.8 4.2 3.4 4.2 4.9 5.2 5.2 5.4 5.4 5.5 6.3 6.5 6.5 4.8 3.0 2.7 3.6 3.7 2.9 2.2 1.1 0.6 -0.1 -0.2 -0.5 -1.1 -2.1 -2.6 -3.5 -4.2 -2.9 -2.6 -3.4 -6.0 -6.6 -4.0 -5.8 -8.0 -7.4 -6.2 -6.2 -6.9 -2.1 0.9 1.8 2.7 1.9 -0.4 -1.9 -1.2 -0.7 -1.0
5.0 1.9 3.1 1.4 5.7 6.5 5.9 3.3 4.3 3.4 2.9 2.5 2.8 4.3 4.0 3.1 2.4 1.9 2.3 2.4 1.5 0.2 -0.8 -1.5 -1.7 -0.9 -2.5 -2.7 -4.6 -4.2 -7.3 -9.3 -7.6 -4.8 -5.5 -6.1 -4.3 -4.7 -8.2 -7.1 -5.9 -4.9 -5.2 -6.4 -5.5 -4.6 -2.8 -4.8 -3.8 -4.6 -4.4 -4.5 -4.8 -5.1
4.6 5.0 5.0 3.9 4.6 5.7 4.1 5.5 5.7 5.1 4.8 2.1 2.2 2.1 2.8 1.8 2.0 1.8 0.7 -0.0 -0.1 -0.3 -0.8 -3.6 -4.3 -8.5 -6.3 -6.7 -7.1 -6.1 -4.7 -7.2 -8.4 -6.2 -6.3 -6.7 -6.6 -7.7 -7.6 -6.0 -4.8 -4.8 -8.1 -8.6 -8.6 -7.8 -6.6 -6.7 -7.5 -7.0 -6.1 -4.9 -4.6 -5.3
4.9 4.7 3.1 6.7 3.1 1.9 0.8 1.5 -0.6 1.4 3.0 4.4 3.0 0.6 -1.4 0.3 0.7 1.6 0.5 -1.7 -1.1 -2.2 -3.7 -8.1 -5.5 -4.1 -6.6 -7.5 -9.1 -9.4 -5.5 -7.4 -7.4 -7.2 -6.5 -5.8 -5.4 -5.1 -3.5 -3.2 -3.2 -5.0 -8.4 -8.0 -8.2 -7.8 -7.0 -6.5 -6.8 -6.6 -6.5 -6.1 -6.1 -5.6
-1.2 -1.2 -0.6 0.6 3.1 2.8 -1.8 -2.3 -2.9 -0.1 2.6 4.7 1.0 0.0 -0.9 0.8 3.0 1.7 0.8 -2.0 -1.3 -2.6 -4.8 -6.4 -6.9 -7.4 -7.0 -7.5 -6.9 -7.4 -4.4 -3.3 -2.4 -2.3 -1.1 0.8 0.9 0.9 -0.5 -2.5 -4.0 -6.7 -7.7 -7.8 -8.1 -8.6 -6.4 -5.7 -5.8 -6.3 -6.5 -6.6 -6.5 -6.3
Wind_Speed
24 22 19 19 18 17 16 16 15 12 11 13 12 12 9 13 15 4 2 2 4 3 1 2 3 6 4 3 5 5 4 3 3 4 3 4 3 5 2 4 6 7 6 4 3 2 8 6 3 7 6 2 6 8
23 20 19 18 17 17 16 15 13 12 10 12 15 12 9 8 11 6 2 1 2 4 3 2 3 1 2 6 6 1 4 4 5 4 1 3 2 2 2 3 2 2 6 4 8 6 5 6 5 4 2 3 5 7
22 22 19 18 18 17 17 15 13 13 10 12 13 11 10 10 9 6 3 1 3 4 4 4 3 5 5 3 3 5 2 5 3 2 4 3 3 4 4 5 1 4 4 2 2 4 7 8 6 6 6 7 4 6
22 21 19 19 18 18 16 14 13 12 10 11 12 16 15 15 12 8 4 2 3 4 4 3 4 4 7 4 3 3 8 6 6 3 3 3 3 4 3 3 3 4 5 4 5 8 6 8 7 9 6 5 5 4
21 20 19 18 18 17 16 15 13 12 11 13 14 15 15 17 21 12 4 3 2 4 4 2 3 6 7 5 10 8 10 6 3 3 3 3 3 4 1 2 3 5 7 4 6 9 5 7 5 1 6 8 7 7
21 19 19 18 16 18 16 13 12 12 14 14 14 12 13 8 6 4 4 4 8 3 4 2 3 5 6 7 10 7 4 4 3 4 3 2 1 3 4 4 8 4 5 6 6 2 6 6 5 3 5 5 6 7
21 20 18 17 18 17 14 13 12 13 15 17 18 16 14 16 6 5 4 3 11 2 3 3 3 5 4 4 3 4 4 3 3 2 1 3 1 3 3 4 10 7 8 7 5 3 5 4 5 2 3 7 11 11
20 17 17 15 18 17 14 12 11 12 13 16 17 18 22 24 15 4 4 12 9 5 4 3 2 3 5 2 2 3 2 2 4 2 1 2 2 2 3 8 6 6 6 6 5 7 2 2 6 7 9 12 14 11
20 18 15 15 18 15 13 11 11 11 12 12 10 9 6 6 3 2 16 13 6 4 4 2 4 3 3 2 1 3 2 2 1 2 1 3 1 4 2 6 7 5 5 7 5 5 6 9 10 10 13 12 16 11
19 18 17 15 15 14 12 10 9 9 10 9 6 4 3 2 9 7 5 4 5 4 4 2 1 2 2 1 2 2 2 1 1 3 2 2 2 2 6 6 6 7 6 3 3 5 7 10 11 13 13 11 8 6
22 19 18 18 15 14 12 9 6 3 9 3 3 2 2 7 3 4 3 4 3 3 2 1 1 2 2 2 2 1 2 0 2 3 3 1 1 4 7 7 7 10 13 14 14 14 12 11 11 11 7 4 4 3
24 23 22 20 18 14 8 6 8 5 1 3 4 3 3 4 3 6 2 1 2 2 2 1 1 1 0 2 3 1 2 1 4 0 1 1 2 2 3 5 7 9 12 14 14 14 11 10 6 5 3 1 2 3
24 25 25 23 21 18 17 17 18 14 4 3 4 4 3 3 4 3 4 1 1 2 2 2 1 0 2 3 3 2 3 3 1 1 1 2 4 2 4 5 8 9 10 9 6 5 6 4 3 3 2 2 3 4
21 22 26 25 21 17 13 10 9 6 5 4 3 4 2 2 3 2 1 2 0 0 1 1 2 2 1 2 1 2 1 1 2 1 2 2 0 5 4 4 6 4 4 4 5 4 3 3 2 3 2 2 2 4
16 21 24 28 21 16 11 12 10 4 3 3 3 3 2 1 2 1 0 2 0 1 1 2 2 2 2 2 1 2 2 1 1 2 1 1 3 4 5 3 4 5 3 3 2 1 1 2 3 4 4 2 3 4
8 11 10 29 19 16 9 7 5 3 3 3 4 3 1 2 1 1 1 1 1 1 1 2 2 2 2 1 2 2 3 2 1 1 1 1 4 4 5 6 1 1 1 1 1 1 2 2 3 4 5 3 4 4
16 4 21 21 15 9 15 4 3 5 4 3 2 2 2 2 2 1 0 1 1 1 2 2 3 3 2 2 1 1 3 3 2 2 2 3 3 4 4 4 2 2 1 1 1 1 2 2 1 3 6 7 6 4
3 9 19 22 12 5 3 4 3 4 5 2 2 2 2 2 2 1 1 2 2 1 2 2 3 2 4 5 2 2 3 1 1 0 1 2 0 2 3 3 3 2 2 3 3 4 4 6 6 5 6 7 7 6
5 15 21 21 7 3 3 5 4 3 2 1 1 2 2 1 1 1 1 1 0 1 3 2 3 2 3 3 3 4 2 2 2 2 1 4 4 3 4 4 5 5 6 6 7 5 4 6 5 6 6 7 8 8
11 20 21 18 10 3 4 3 2 3 2 0 2 2 1 1 2 2 2 2 2 1 2 1 3 3 3 2 2 3 3 4 3 2 2 3 4 6 7 6 5 5 5 6 6 9 7 6 7 8 8 8 8 9
10 9 14 9 4 5 3 3 3 2 1 2 0 1 1 1 2 2 2 2 2 1 1 1 1 2 2 2 1 2 3 2 2 2 2 3 4 5 6 6 6 6 6 6 7 7 8 6 7 7 7 7 7 9
3 10 3 5 4 4 4 4 1 2 2 1 1 1 0 1 1 1 1 1 1 1 1 1 1 1 3 4 6 6 6 8 8 7 8 5 4 4 6 6 6 6 6 6 5 4 5 5 6 6 6 7 9 8
4 5 3 4 5 5 2 3 3 3 1 1 1 1 1 1 1 1 1 1 0 1 1 2 5 8 9 9 9 10 10 9 7 6 5 6 7 6 5 6 5 5 4 5 4 3 4 7 6 6 7 7 7 8
6 4 4 3 4 1 2 3 2 2 2 1 1 2 1 1 2 1 2 1 1 1 1 5 5 6 5 7 7 7 6 5 6 6 6 4 5 6 5 5 4 4 4 4 4 4 4 4 7 7 7 8 8 9
5 3 3 3 1 4 3 2 1 1 2 2 1 3 2 1 1 1 1 2 2 2 3 4 5 5 5 5 5 5 8 5 5 7 5 5 3 3 3 3 2 3 4 4 5 6 6 5 6 6 8 7 10 11
5 2 2 1 1 1 2 0 3 2 1 2 4 1 2 2 2 2 1 3 2 4 3 4 5 6 7 6 4 4 4 4 4 4 4 5 4 3 2 2 3 3 3 1 2 4 6 6 6 8 8 9 8 7
2 2 1 1 1 0 2 2 2 2 3 3 1 0 1 2 1 2 1 4 2 3 5 5 4 6 6 5 4 4 3 4 5 6 5 5 4 4 3 2 3 3 5 4 3 3 5 7 7 7 8 5 3 5
3 1 1 3 2 3 2 1 1 1 2 2 1 2 1 2 1 2 3 3 4 5 6 7 7 6 6 5 4 3 5 4 7 6 4 3 2 1 2 2 6 9 6 5 3 4 4 5 7 7 5 3 3 3
1 1 1 2 2 2 1 1 1 1 2 0 1 2 2 2 2 2 3 3 3 4 5 5 4 4 5 5 5 4 3 3 4 4 2 3 3 3 2 3 3 3 4 3 9 8 9 5 4 2 4 2 3 2
2 1 2 1 1 1 0 2 1 2 2 2 3 3 2 2 3 3 2 3 4 4 2 2 2 2 2 2 2 3 3 3 2 3 3 3 4 3 3 3 4 4 4 3 4 6 8 4 5 4 4 4 4 3
1 1 1 0 1 0 2 2 1 0 2 3 3 3 2 2 2 3 3 3 3 3 3 3 3 2 3 3 2 2 2 2 1 2 3 3 3 3 3 4 6 8 2 3 3 3 3 3 3 3 5 5 6 4
2 2 1 2 3 3 4 3 2 2 3 2 2 3 3 3 2 2 2 2 3 4 2 1 2 2 2 1 1 1 2 2 3 2 4 3 3 5 9 10 10 5 3 3 3 3 3 3 3 3 3 4 5 5
3 3 3 2 3 4 3 3 4 3 3 2 2 1 1 3 3 2 1 2 2 3 2 3 3 2 3 4 3 2 2 5 8 8 7 6 7 7 8 8 7 3 3 3 3 3 4 3 3 3 4 4 4 5
Wind_Direction
118 118 116 123 127 130 129 124 125 125 119 96 77 61 76 141 169 162 118 136 124 114 55 78 128 129 129 123 135 184 73 336 39 70 121 202 143 220 131 187 179 170 153 198 102 67 281 169 82 161 216 253 186 191
119 118 119 125 125 123 120 117 126 123 89 82 66 51 45 107 144 121 113 129 136 84 145 53 74 21 276 165 127 40 161 163 170 90 60 121 156 161 145 240 43 236 189 182 184 216 230 235 228 256 177 207 215 197
120 120 123 123 118 116 114 113 108 104 82 77 72 48 44 76 122 120 113 155 69 85 18 54 359 326 31 42 165 118 308 146 105 123 149 156 152 133 166 238 141 248 161 196 82 255 239 237 257 235 215 229 216 224
117 119 118 116 115 110 106 102 92 90 83 66 59 53 51 75 104 97 89 347 77 105 110 279 331 28 333 2 78 87 123 75 98 76 107 139 149 185 210 194 165 202 148 185 262 280 284 266 235 251 247 221 223 203
113 107 110 109 103 108 100 89 87 85 71 56 53 53 54 65 73 85 90 38 38 120 152 221 320 2 350 40 69 75 108 110 119 82 103 205 138 116 88 84 260 191 193 165 231 239 198 248 270 209 215 227 200 162
100 104 99 104 106 89 89 93 84 70 61 50 49 58 53 72 118 70 44 9 17 36 96 111 282 7 348 35 59 56 53 80 98 136 196 224 251 110 151 197 253 205 221 205 240 229 208 259 284 246 240 207 165 135
96 93 98 96 96 93 92 90 81 69 61 56 56 69 70 73 67 75 137 280 335 3 80 51 357 340 337 21 37 25 26 62 91 114 180 140 171 108 141 189 253 218 235 247 242 157 280 216 251 220 154 103 100 94
92 98 103 108 103 95 91 85 79 76 66 61 67 76 79 91 112 46 2 353 336 90 61 107 277 14 1 22 32 347 35 26 24 105 92 119 74 85 237 250 307 300 299 291 264 215 250 34 69 74 96 104 86 80
77 79 82 89 95 96 91 82 80 73 56 46 52 55 45 37 48 304 323 327 25 92 114 86 135 215 9 46 40 26 35 53 292 188 227 132 166 218 280 321 322 337 336 322 39 52 62 84 88 85 94 90 94 101
68 75 77 87 97 98 89 81 84 71 42 46 39 43 40 334 323 320 4 28 19 351 39 91 45 128 48 17 18 72 353 156 254 240 108 159 249 59 357 332 322 322 322 157 105 86 85 88 96 91 91 97 112 161
60 60 65 76 84 92 97 91 49 11 40 39 51 79 239 324 45 31 54 62 16 49 24 74 130 119 329 113 176 110 173 112 235 251 196 224 302 6 349 21 33 53 62 63 70 68 72 86 91 92 96 130 176 231
59 57 58 62 68 73 77 49 30 53 64 131 122 96 47 37 45 81 53 29 78 173 4 130 197 87 82 134 110 224 167 111 246 146 117 244 47 1 45 28 33 58 72 74 78 81 81 88 105 137 179 219 228 239
59 54 48 44 46 55 61 66 77 106 110 53 49 55 39 329 73 125 152 297 118 354 348 21 47 29 25 41 64 98 181 224 66 160 221 79 114 98 42 42 69 80 86 86 90 94 99 95 77 69 18 327 341 328
51 46 41 32 29 37 55 65 43 38 56 58 57 62 38 65 58 88 76 89 153 22 30 37 58 65 22 63 88 150 17 345 219 194 235 122 57 20 47 69 80 54 48 84 79 62 60 60 6 335 281 276 275 283
52 48 35 10 6 22 44 57 55 48 69 74 48 78 67 123 81 88 109 113 326 184 129 85 63 58 35 94 50 83 33 274 168 223 59 123 57 89 58 96 132 128 162 131 124 35 340 321 338 324 314 315 305 289
35 42 8 351 356 18 24 48 37 60 52 65 51 93 73 90 108 112 52 86 188 117 64 59 100 77 50 72 75 198 120 200 231 13 113 250 95 123 164 220 198 337 107 222 295 293 304 258 258 277 304 253 255 245
56 31 331 346 358 18 28 66 51 49 76 56 48 29 80 63 81 78 124 104 356 61 108 100 101 179 108 84 131 127 155 171 156 138 172 227 239 211 223 228 229 169 153 191 237 258 278 344 337 3 2 338 336 319
53 314 352 1 5 27 34 38 73 68 65 32 60 27 37 35 88 42 18 359 58 117 118 175 125 107 162 163 245 196 207 246 272 128 137 203 107 114 105 114 93 87 69 47 37 23 28 28 34 15 349 340 330 335
24 11 6 10 27 84 61 18 57 85 60 66 60 32 45 58 19 352 326 354 147 138 107 48 82 173 223 216 171 182 165 168 210 248 15 44 57 90 86 81 67 60 53 48 42 38 27 35 26 7 357 350 342 335
14 20 6 8 26 61 53 5 43 83 82 158 61 39 58 51 323 351 339 347 17 74 33 118 205 215 182 239 194 173 166 181 144 68 36 23 25 66 54 58 54 59 62 52 43 30 17 13 11 4 355 340 332 328
19 347 7 27 30 46 86 8 52 60 100 69 347 52 17 4 34 12 320 343 24 281 306 253 283 288 64 50 82 101 103 138 97 134 146 92 47 66 57 44 43 50 51 33 23 18 20 9 354 343 335 330 327 324
323 356 31 18 46 27 61 13 60 288 67 72 35 44 32 309 260 258 322 39 254 53 104 330 302 159 100 59 50 44 80 80 74 73 54 67 60 55 49 37 43 45 43 35 25 18 345 343 337 333 328 321 326 320
347 25 33 36 56 45 328 345 30 5 55 279 39 319 262 230 265 334 316 254 111 45 91 103 70 80 93 80 71 55 60 73 73 66 69 80 82 79 78 62 52 48 31 15 359 358 340 329 329 327 322 322 321 318
26 45 24 42 60 32 351 17 3 17 2 348 143 277 298 247 356 75 251 286 347 7 59 124 124 104 80 62 64 53 42 77 78 57 31 69 77 65 68 74 65 55 27 342 336 327 325 318 322 325 321 321 323 323
68 359 66 48 39 58 51 12 326 246 262 270 259 300 231 85 145 240 258 306 16 19 18 76 81 82 98 91 78 61 29 36 82 82 38 48 67 56 49 50 42 61 18 359 349 336 328 327 326 321 322 323 324 328
54 345 60 97 349 32 200 202 214 239 212 273 238 286 47 107 119 232 56 342 30 16 14 50 88 89 70 65 79 51 22 7 90 91 68 63 69 99 89 35 345 321 7 349 309 307 318 320 319 320 319 321 338 343
74 290 292 248 294 203 303 234 191 202 227 228 212 211 211 204 156 63 46 9 42 18 22 27 67 86 99 87 64 43 27 44 79 103 106 90 81 82 117 102 320 288 323 326 309 268 302 317 312 305 307 312 327 341
207 171 209 262 243 217 248 242 250 302 358 13 78 42 33 22 91 20 12 34 61 64 62 51 53 73 83 71 51 60 61 73 83 82 77 60 65 58 49 344 319 317 319 306 288 296 281 285 290 298 312 315 309 329
249 305 128 281 307 2 54 83 338 338 318 246 114 108 99 60 6 335 349 12 50 69 74 78 55 65 74 68 54 39 44 77 87 53 26 297 336 311 335 326 314 310 316 319 315 320 308 300 313 328 325 326 307 331
312 106 70 342 198 254 113 176 260 264 54 85 96 90 72 35 359 341 3 42 62 71 54 55 20 67 108 98 72 14 10 46 107 139 178 233 237 265 301 311 321 318 325 328 317 316 326 3 350 8 11 6 5 0
310 359 259 117 254 353 283 284 303 241 112 81 46 87 122 155 12 24 39 31 63 67 74 52 39 29 95 82 112 84 330 295 292 264 237 249 261 290 295 303 307 311 314 329 332 327 330 354 10 3 8 3 353 2
35 47 88 335 302 319 11 40 347 18 2 108 91 105 38 59 39 329 352 51 51 54 37 121 94 287 225 232 250 232 207 275 294 285 308 301 290 300 308 314 325 332 349 345 345 346 8 9 350 359 350 344 344 348
19 33 41 20 346 345 332 65 24 10 25 56 22 94 99 122 147 243 348 54 140 167 204 224 232 229 207 200 203 233 265 302 305 298 303 301 299 300 315 327 339 340 351 347 345 353 357 359 350 344 345 347 341 343